Kars, Turkey

8:11 AM +03 on December 04, 2016 (GMT +0300)
Kars

Weather History for LTCF - June, 2013

Change the Weather History Date:

Sunday, June 23, 2013

  Actual Average Record
Temperature  
Mean Temperature 54 °F -  
Max Temperature 72 °F - - ()
Min Temperature 37 °F - - ()
Degree Days  
Heating Degree Days 10    
Growing Degree Days 4 (Base 50)    
Moisture  
Dew Point 43 °F    
Average Humidity 61    
Maximum Humidity 100    
Minimum Humidity 25    
Precipitation  
Precipitation 0.00 in - - ()
Sea Level Pressure  
Sea Level Pressure 30.09 in    
Wind  
Wind Speed 2 mph ()    
Max Wind Speed 9 mph    
Max Gust Speed -    
Visibility 6.1 miles    
Events      
T = Trace of Precipitation, MM = Missing Value Source: Averaged Metar Reports

Daily Weather History Graph

Daily Weather History Graph

Search for Another Location

Airport or City:

Trip Planner

Search our weather history database for the weather conditions in past years. The results will help you decide how hot, cold, wet, or windy it might be!

Date:

Astronomy

Jun. 23, 2013 Rise Set
Actual Time 4:37 AM EEST 7:42 PM EEST
Civil Twilight 4:04 AM EEST 8:15 PM EEST
Nautical Twilight 3:21 AM EEST 8:57 PM EEST
Astronomical Twilight 2:31 AM EEST 9:47 PM EEST
Moon 7:33 PM EEST (6/23) 4:30 AM EEST (6/23)
Length of Visible Light 16h 11m
Length of Day
15h 04m
Full, 100% of the Moon is Illuminated
Jun 23
Full
Jun 23
Full
Jun 30
Last Quarter
Jul 8
New
Jul 16
First Quarter

Hourly Weather History & Observations

Time (EEST) Temp. Windchill Dew Point Humidity Pressure Visibility Wind Dir Wind Speed Gust Speed Precip Events Conditions
12:50 AM 42.8 °F - 39.2 °F 87% 30.12 in - Calm Calm - N/A   Clear
1:50 AM 44.6 °F - 42.8 °F 93% 30.12 in - Calm Calm - N/A   Clear
3:00 AM 43 °F - 42 °F 93%  in 6 mi Calm Calm - -  
3:50 AM 39.2 °F 35.9 °F 39.2 °F 100% 30.12 in - WNW 4.6 mph - N/A   Clear
4:50 AM 39.2 °F - 39.2 °F 100% 30.12 in - Calm Calm - N/A   Clear
5:50 AM 41.0 °F - 41.0 °F 100% 30.15 in - NW 2.3 mph - N/A   Clear
6:50 AM 50.0 °F - 42.8 °F 76% 30.12 in - Calm Calm - N/A   Clear
7:50 AM 53.6 °F - 44.6 °F 72% 30.12 in - Calm Calm - N/A   Clear
8:50 AM 59.0 °F - 42.8 °F 55% 30.12 in - Variable 1.2 mph - N/A   Clear
9:00 AM 59 °F - 43 °F 44%  in 6 mi SSW 1.2 mph - -  
9:50 AM 62.6 °F - 42.8 °F 48% 30.12 in - Variable 1.2 mph - N/A   Clear
10:50 AM 66.2 °F - 39.2 °F 37% 30.12 in 6.2 mi SW 3.5 mph - N/A   Partly Cloudy
11:50 AM 66.2 °F - 42.8 °F 43% 30.09 in 6.2 mi SW 4.6 mph - N/A   Partly Cloudy
12:50 PM 68.0 °F - 42.8 °F 40% 30.09 in 6.2 mi SSW 4.6 mph - N/A   Partly Cloudy
1:50 PM 69.8 °F - 37.4 °F 31% 30.09 in 6.2 mi Variable 2.3 mph - N/A   Partly Cloudy
2:50 PM 71.6 °F - 44.6 °F 38% 30.06 in 6.2 mi South 5.8 mph - N/A   Partly Cloudy
3:00 PM 71 °F - 43 °F 25%  in 6 mi South 5.8 mph - -   Scattered Clouds
3:50 PM 71.6 °F - 44.6 °F 38% 30.06 in 6.2 mi Variable 2.3 mph - N/A   Partly Cloudy
4:50 PM 71.6 °F - 42.8 °F 35% 30.06 in 6.2 mi Variable 1.2 mph - N/A   Partly Cloudy
5:50 PM 71.6 °F - 42.8 °F 35% 30.04 in 6.2 mi Variable 1.2 mph - N/A   Partly Cloudy
6:50 PM 68.0 °F - 46.4 °F 46% 30.06 in 6.2 mi NE 6.9 mph - N/A   Partly Cloudy
7:50 PM 60.8 °F - 48.2 °F 63% 30.06 in - NE 9.2 mph - N/A   Clear
8:50 PM 57.2 °F - 48.2 °F 72% 30.06 in - NE 9.2 mph - N/A   Clear
9:00 PM 57 °F - 47 °F 62%  in 6 mi NE 9.2 mph - -  
9:50 PM 57.2 °F - 44.6 °F 63% 30.06 in - NE 8.1 mph - N/A   Clear
10:50 PM 53.6 °F - 44.6 °F 72% 30.09 in - ENE 4.6 mph - N/A   Clear
11:50 PM 51.8 °F - 46.4 °F 82% 30.06 in - ENE 3.5 mph - N/A   Clear